Novato, CA

7:01 PM PDT on March 22, 2017 (GMT -0700)
Gnoss

Weather History for KDVO - November, 2013

Change the Weather History Date:

Sunday, November 10, 2013

  Actual Average (KAPC) Record (KAPC)
Temperature  
Mean Temperature 52 °F -  
Max Temperature 66 °F 65 °F 80 °F (2016)
Min Temperature 37 °F 45 °F 28 °F (2000)
Degree Days  
Heating Degree Days 14    
Growing Degree Days 2 (Base 50)    
Moisture  
Dew Point 45 °F    
Average Humidity 86    
Maximum Humidity 100    
Minimum Humidity 52    
Precipitation  
Precipitation 0.00 in - - ()
Sea Level Pressure  
Sea Level Pressure 30.09 in    
Wind  
Wind Speed 2 mph (ENE)    
Max Wind Speed 8 mph    
Max Gust Speed -    
Visibility 8 miles    
Events Fog    
Averages and records for this station are not official NWS values.
T = Trace of Precipitation, MM = Missing Value Source: NWS Daily Summary

Daily Weather History Graph

Daily Weather History Graph

Search for Another Location

Airport or City:

Trip Planner

Search our weather history database for the weather conditions in past years. The results will help you decide how hot, cold, wet, or windy it might be!

Date:

Astronomy

Nov. 10, 2013 Rise Set
Actual Time 6:46 AM PST 5:01 PM PST
Civil Twilight 6:18 AM PST 5:29 PM PST
Nautical Twilight 5:46 AM PST 6:01 PM PST
Astronomical Twilight 5:15 AM PST 6:32 PM PST
Moon 1:04 PM PST (11/10) No Moon Set
Length of Visible Light 11h 11m
Length of Day
10h 15m
First Quarter, 56% of the Moon is Illuminated
Nov 10
First Quarter
Nov 17
Full
Nov 25
Last Quarter
Dec 2
New
Dec 9
First Quarter

Hourly Weather History & Observations

Time (PST) Temp. Windchill Dew Point Humidity Pressure Visibility Wind Dir Wind Speed Gust Speed Precip Events Conditions
12:15 AM 44.6 °F - 44.6 °F 100% 30.06 in 10.0 mi Calm Calm - N/A   Clear
12:35 AM 41.0 °F - 41.0 °F 100% 30.05 in 10.0 mi Calm Calm - N/A   Clear
12:55 AM 41.0 °F - 41.0 °F 100% 30.05 in 10.0 mi Calm Calm - N/A   Clear
1:15 AM 41.0 °F 39.0 °F 41.0 °F 100% 30.05 in 10.0 mi South 3.5 mph - N/A   Clear
1:35 AM 41.0 °F - 41.0 °F 100% 30.05 in 9.0 mi Calm Calm - N/A   Clear
1:55 AM 37.4 °F - 37.4 °F 100% 30.04 in 5.0 mi Calm Calm - N/A   Clear
2:15 AM 41.0 °F - 41.0 °F 100% 30.05 in 1.5 mi Calm Calm - N/A   Clear
2:35 AM 41.0 °F - 41.0 °F 100% 30.05 in 10.0 mi Calm Calm - N/A   Clear
2:55 AM 41.0 °F 39.0 °F 41.0 °F 100% 30.06 in 10.0 mi NW 3.5 mph - N/A   Clear
3:15 AM 41.0 °F - 41.0 °F 100% 30.07 in 10.0 mi Calm Calm - N/A   Clear
3:35 AM 41.0 °F 39.0 °F 41.0 °F 100% 30.07 in 10.0 mi North 3.5 mph - N/A   Clear
3:55 AM 41.0 °F - 41.0 °F 100% 30.06 in 7.0 mi Calm Calm - N/A   Clear
4:15 AM 41.0 °F - 41.0 °F 100% 30.07 in 8.0 mi Calm Calm - N/A   Clear
4:35 AM 39.2 °F - 39.2 °F 100% 30.07 in 0.5 mi Calm Calm - N/A Fog Fog
4:55 AM 39.2 °F - 39.2 °F 100% 30.07 in 10.0 mi Calm Calm - N/A   Partly Cloudy
5:15 AM 39.2 °F - 39.2 °F 100% 30.08 in 9.0 mi Calm Calm - N/A   Clear
5:35 AM 37.4 °F 33.8 °F 37.4 °F 100% 30.08 in 0.2 mi North 4.6 mph - N/A Fog Fog
5:55 AM 37.4 °F 33.8 °F 37.4 °F 100% 30.09 in 0.2 mi North 4.6 mph - N/A Fog Fog
6:15 AM 39.2 °F - 39.2 °F 100% 30.09 in 3.0 mi Calm Calm - N/A   Partly Cloudy
6:35 AM 37.4 °F - 37.4 °F 100% 30.10 in 1.8 mi Calm Calm - N/A   Clear
6:55 AM 37.4 °F - 37.4 °F 100% 30.10 in 0.5 mi Calm Calm - N/A Fog Fog
7:15 AM 39.2 °F - 39.2 °F 100% 30.11 in 5.0 mi Calm Calm - N/A   Clear
7:35 AM 39.2 °F - 39.2 °F 100% 30.12 in 5.0 mi Calm Calm - N/A   Scattered Clouds
7:55 AM 41.0 °F - 41.0 °F 100% 30.12 in 7.0 mi Calm Calm - N/A   Mostly Cloudy
8:15 AM 44.6 °F - 44.6 °F 100% 30.13 in 8.0 mi Calm Calm - N/A   Mostly Cloudy
8:35 AM 46.4 °F - 46.4 °F 100% 30.13 in 10.0 mi Calm Calm - N/A   Partly Cloudy
8:55 AM 50.0 °F - 50.0 °F 100% 30.13 in 9.0 mi North 5.8 mph - N/A   Clear
9:15 AM 53.6 °F - 51.8 °F 94% 30.12 in 9.0 mi North 5.8 mph - N/A   Clear
9:35 AM 55.4 °F - 50.0 °F 82% 30.12 in 9.0 mi NNE 4.6 mph - N/A   Clear
9:55 AM 55.4 °F - 50.0 °F 82% 30.13 in 10.0 mi Calm Calm - N/A   Clear
10:15 AM 57.2 °F - 50.0 °F 77% 30.13 in 10.0 mi WSW 3.5 mph - N/A   Clear
10:35 AM 59.0 °F - 50.0 °F 72% 30.13 in 10.0 mi SSE 3.5 mph - N/A   Clear
10:55 AM 59.0 °F - 50.0 °F 72% 30.13 in 10.0 mi Calm Calm - N/A   Clear
11:15 AM 59.0 °F - 50.0 °F 72% 30.13 in 10.0 mi Calm Calm - N/A   Clear
11:35 AM 62.6 °F - 50.0 °F 63% 30.12 in 10.0 mi SE 4.6 mph - N/A   Clear
11:55 AM 62.6 °F - 50.0 °F 63% 30.11 in 10.0 mi SE 5.8 mph - N/A   Clear
12:15 PM 62.6 °F - 50.0 °F 63% 30.10 in 10.0 mi ESE 5.8 mph - N/A   Clear
12:35 PM 62.6 °F - 50.0 °F 63% 30.09 in 10.0 mi ESE 6.9 mph - N/A   Clear
12:55 PM 62.6 °F - 50.0 °F 63% 30.08 in 10.0 mi SE 5.8 mph - N/A   Clear
1:15 PM 64.4 °F - 50.0 °F 59% 30.08 in 10.0 mi Calm Calm - N/A   Clear
1:35 PM 64.4 °F - 50.0 °F 59% 30.07 in 10.0 mi Calm Calm - N/A   Clear
1:55 PM 64.4 °F - 50.0 °F 59% 30.07 in 10.0 mi SE 4.6 mph - N/A   Clear
2:15 PM 66.2 °F - 50.0 °F 56% 30.07 in 10.0 mi ESE 4.6 mph - N/A   Clear
2:35 PM 66.2 °F - 50.0 °F 56% 30.07 in 10.0 mi ESE 5.8 mph - N/A   Clear
2:55 PM 66.2 °F - 48.2 °F 52% 30.07 in 10.0 mi ESE 4.6 mph - N/A   Clear
3:15 PM 66.2 °F - 48.2 °F 52% 30.08 in 10.0 mi SE 5.8 mph - N/A   Clear
3:35 PM 66.2 °F - 48.2 °F 52% 30.07 in 10.0 mi SSE 3.5 mph - N/A   Clear
3:55 PM 66.2 °F - 48.2 °F 52% 30.08 in 10.0 mi SE 4.6 mph - N/A   Clear
4:15 PM 66.2 °F - 48.2 °F 52% 30.08 in 10.0 mi SSE 4.6 mph - N/A   Clear
4:35 PM 64.4 °F - 48.2 °F 56% 30.08 in 10.0 mi NNW 4.6 mph - N/A   Clear
4:55 PM 57.2 °F - 46.4 °F 67% 30.08 in 10.0 mi NE 6.9 mph - N/A   Clear
5:15 PM 55.4 °F - 46.4 °F 72% 30.08 in 10.0 mi ENE 6.9 mph - N/A   Clear
5:35 PM 53.6 °F - 46.4 °F 77% 30.08 in 10.0 mi North 8.1 mph - N/A   Clear
5:55 PM 50.0 °F - 46.4 °F 87% 30.09 in 10.0 mi NNE 6.9 mph - N/A   Clear
6:15 PM 48.2 °F - 46.4 °F 93% 30.10 in 10.0 mi NNE 5.8 mph - N/A   Clear
6:35 PM 48.2 °F - 44.6 °F 87% 30.10 in 10.0 mi North 5.8 mph - N/A   Clear
6:55 PM 48.2 °F - 46.4 °F 93% 30.10 in 10.0 mi Calm Calm - N/A   Clear
7:15 PM 50.0 °F - 48.2 °F 94% 30.11 in 10.0 mi NW 4.6 mph - N/A   Clear
7:35 PM 48.2 °F - 46.4 °F 93% 30.11 in 10.0 mi NNW 5.8 mph - N/A   Clear
7:55 PM 46.4 °F 45.2 °F 46.4 °F 100% 30.11 in 10.0 mi NW 3.5 mph - N/A   Clear
8:15 PM 48.2 °F - 48.2 °F 100% 30.12 in 10.0 mi North 3.5 mph - N/A   Clear
8:35 PM 46.4 °F - 46.4 °F 100% 30.12 in 10.0 mi Calm Calm - N/A   Clear
8:55 PM 46.4 °F - 44.6 °F 93% 30.12 in 10.0 mi Calm Calm - N/A   Clear
9:15 PM 44.6 °F - 44.6 °F 100% 30.12 in 10.0 mi Calm Calm - N/A   Clear
9:35 PM 46.4 °F - 46.4 °F 100% 30.13 in 10.0 mi Calm Calm - N/A   Clear
9:55 PM 44.6 °F - 44.6 °F 100% 30.13 in 10.0 mi Calm Calm - N/A   Clear
10:15 PM 41.0 °F - 41.0 °F 100% 30.13 in 1.5 mi Calm Calm - N/A   Clear
10:35 PM 44.6 °F - 44.6 °F 100% 30.13 in 7.0 mi Calm Calm - N/A   Clear
10:55 PM 42.8 °F - 42.8 °F 100% 30.12 in 1.5 mi Calm Calm - N/A   Clear
11:15 PM 41.0 °F - 41.0 °F 100% 30.13 in 7.0 mi Calm Calm - N/A   Clear
11:35 PM 42.8 °F - 42.8 °F 100% 30.13 in 0.2 mi Calm Calm - N/A Fog Fog
11:55 PM 41.0 °F - 41.0 °F 100% 30.13 in 0.2 mi Calm Calm - N/A Fog Fog